Regional Weather Roundup
Issued by NWS

Home | Current Version | Previous Version | Text Only | Print | Product List | Glossary Off
Versions: 1 2 3 4 5 6 7 8 9 10 11 12 13 14 15 16 17 18 19 20 21 22 23 24 25 26 27 28 29 30 31 32 33 34 35 36 37 38 39 40 41 42 43 44 45 46 47 48 49 50

000
ASUS43 KDMX 231201
RWRIA

WEATHER ROUNDUP FOR IOWA
NATIONAL WEATHER SERVICE DES MOINES IA
700 AM CDT SUN JUL 23 2017

NOTE: "FAIR" INDICATES FEW OR NO CLOUDS BELOW 12,000 FEET WITH NO
SIGNIFICANT WEATHER AND/OR OBSTRUCTIONS TO VISIBILITY.

* - THESE STATIONS ARE NOT NWS STATIONS...THUS NOT UNDER NWS
QUALITY CONTROL.  THEY ALSO DO NOT REPORT WEATHER SUCH
AS PRECIPITATION OR FOG.

IAZ001>003-012>014-020>022-031>034-043>046-231300-
   NORTHWEST IOWA

CITY           SKY/WX    TMP DP  RH WIND       PRES   REMARKS
CARROLL *      CLOUDY    72  72 100 W7        29.93R FOG
DENISON *      MOCLDY    72  72 100 CALM      29.96S FOG
ORANGE CITY *  CLEAR     64  63  94 CALM      29.96S
SHELDON *      CLEAR     61  59  94 CALM      29.95R
SIOUX CITY     CLEAR     68  67  96 N6        29.95R
6HR MIN TEMP:  64; 6HR MAX TEMP:  68;

SPENCER        CLEAR     64  61  90 W6        29.95R
6HR MIN TEMP:  63; 6HR MAX TEMP:  67;

STORM LAKE *   CLEAR     68  66  94 NW7       29.95S
$$

IAZ055>058-069>071-079>083-090>094-231300-
   SOUTHWEST IOWA

CITY           SKY/WX    TMP DP  RH WIND       PRES   REMARKS
ATLANTIC *     FOG       70  70 100 CALM      29.94R VSB<1/4
AUDUBON *      FOG       70  68  94 CALM      29.95S VSB<1/4
CLARINDA *     FOG       72  72 100 N5        29.95R VSB<1/4
COUNCIL BLFS * FOG       68  68 100 N5        29.94S VSB<1/4
CRESTON *      CLEAR     72  72 100 N6        29.94S FOG
HARLAN  *      FOG       70  70 100 N5        29.97S VSB<1/4
LAMONI         CLEAR     73  73 100 NW5       29.92S FOG
6HR MIN TEMP:  72; 6HR MAX TEMP:  77;

RED OAK *      FOG       68  68 100 CALM      29.93F VSB<1/4
SHENANDOAH *   FOG       70  70 100 CALM      29.94R VSB<1/4
$$

IAZ047>049-059>061-072>074-084-231300-
   CENTRAL IOWA

CITY           SKY/WX    TMP DP  RH WIND       PRES   REMARKS
AMES           CLEAR     70  70 100 W8        29.90S FOG
6HR MIN TEMP:  68; 6HR MAX TEMP:  71;

ANKENY *       CLEAR     72  72 100 W5        29.91S
BOONE *        CLEAR     70  68  94 W6        29.91R FOG
CHARITON *     CLEAR     73  72  94 W5        29.91S FOG
DES MOINES     PTCLDY    74  71  91 W6        29.89S
6HR MIN TEMP:  72; 6HR MAX TEMP:  79;

GRINNELL*      FOG       72  71  96 W5        29.91S VSB 1/2
KNOXVILLE *    CLEAR     73  72  94 W5        29.89S
MARSHALLTOWN   SUNNY     70  70 100 W6        29.88S FOG
6HR MIN TEMP:  67; 6HR MAX TEMP:  73;

NEWTON *       FOG       72  72 100 W5        29.90S VSB 1
PELLA *          N/A     74  73  95 NW5       29.90S
$$

IAZ004>006-015-016-023>025-035-036-231300-
   NORTH CENTRAL IOWA

CITY           SKY/WX    TMP DP  RH WIND       PRES   REMARKS
ALGONA *       CLEAR     68  64  88 NW10G16   29.91S
ESTHERVILLE    CLEAR     62  62 100 W6        29.92R
6HR MIN TEMP:  62; 6HR MAX TEMP:  67;

FORT DODGE *   CLEAR     70  66  88 W6        29.92S
MASON CITY     SUNNY     68  64  87 W10       29.89R
6HR MIN TEMP:  67; 6HR MAX TEMP:  71;

FOREST CITY *    N/A     66  64  94 W5        29.89R
WEBSTER CITY * CLEAR     68  66  94 SW7       29.89S FOG
IOWA FALLS *     N/A     70  68  95 W7        29.91R
$$

IAZ007>011-017>019-026>030-037>042-050>054-066-231300-
   NORTHEAST IOWA

CITY           SKY/WX    TMP DP  RH WIND       PRES   REMARKS
CEDAR RAPIDS   SUNNY     70  70 100 W7        29.86R FOG
6HR MIN TEMP:  67; 6HR MAX TEMP:  72;

CHARLES CITY * SUNNY     68  68 100 W5        29.87R
DECORAH *      MOSUNNY   66  66 100 CALM      29.85R
DUBUQUE        FOG       67  67 100 CALM      29.85R VSB<1/4
6HR MIN TEMP:  65; 6HR MAX TEMP:  73;

MONTICELLO *   FOG       70  70 100 W3        29.84S VSB<1/4
OELWEIN *        N/A    N/A N/A N/A MISG        N/A
WATERLOO       SUNNY     69  67  93 W5        29.85S
6HR MIN TEMP:  66; 6HR MAX TEMP:  74;

$$

IAZ064-065-067-068-078-231300-
   EAST CENTRAL IOWA

CITY           SKY/WX    TMP DP  RH WIND       PRES   REMARKS
DAVENPORT      MOSUNNY   72  71  97 SW6       29.86F FOG
6HR MIN TEMP:  71; 6HR MAX TEMP:  75;

IOWA CITY      SUNNY     74  71  91 W7        29.87S
6HR MIN TEMP:  72; 6HR MAX TEMP:  77;

MUSCATINE *    PTSUNNY   75  72  88 W9        29.86S
QUAD CITIES    MOSUNNY   74  72  93 W5        29.84F
6HR MIN TEMP:  73; 6HR MAX TEMP:  77;

$$

IAZ062-063-075>077-085>089-095>099-231300-
   SOUTHEAST IOWA

CITY           SKY/WX    TMP DP  RH WIND       PRES   REMARKS
BURLINGTON     PTSUNNY   75  75 100 W6        29.87S
6HR MIN TEMP:  74; 6HR MAX TEMP:  77;

FAIRFIELD *    CLOUDY    73  72  94 W5        29.87F
FORT MADISON * MOSUNNY   75  75 100 W7        29.88S
KEOKUK *       MOSUNNY   73  72  94 W6        29.87S
OSKALOOSA *      N/A     72  71  96 W6        29.89F FOG
OTTUMWA        SUNNY     75  74  96 W8        29.88S
6HR MIN TEMP:  73; 6HR MAX TEMP:  76;

WASHINGTON *   CLOUDY    73  73 100 W7        29.88S
$$

ABBREVIATIONS USED IN REMARKS
   TC - TEMPERATURES IN CELSIUS
  WCI - WIND CHILL INDEX
   HX - HEAT INDEX
  VSB - VISIBILITY
$$




USA.gov is the U.S. government's official web portal to all federal, state and local government web resources and services.